Theta_e
297 295 293 293 293 292 292 290 288 290 293 292 292 293 295 294 295 295 295 296 296 297 299 300 299 299 300 303 301 301 302 304 305 306 306 309 313 321 324 328 328 327 327 325
294 292 293 295 294 292 291 288 288 290 291 291 292 292 294 294 294 294 294 295 295 296 296 298 300 299 298 299 299 300 301 302 303 305 308 310 316 323 327 328 327 327 325 324
291 292 294 291 290 289 289 289 287 288 291 291 290 290 290 293 294 295 296 296 295 294 293 295 298 299 298 297 299 301 301 301 302 305 309 310 315 318 325 325 326 327 326 324
291 293 291 290 288 290 285 290 289 288 288 286 290 288 284 290 291 293 294 295 294 293 294 295 297 298 298 298 301 301 301 301 301 305 308 309 313 319 324 326 326 326 327 325
289 290 289 288 289 290 286 291 290 288 288 287 285 285 290 286 288 291 293 293 292 293 293 294 295 297 298 298 298 301 300 301 300 304 309 311 313 320 323 320 318 323 324 323
290 293 292 291 291 291 292 290 288 289 288 282 282 284 290 288 290 291 293 292 291 292 293 294 295 296 296 298 298 297 299 299 299 302 308 314 313 312 311 311 310 312 314 316
289 290 292 292 289 291 290 286 284 282 281 282 283 282 289 290 291 293 292 291 291 292 292 293 293 293 294 295 296 295 297 297 298 299 302 307 308 309 309 309 309 309 309 311
287 284 289 292 289 287 288 286 282 279 279 281 282 281 289 291 292 293 294 291 290 291 291 292 292 293 294 294 295 295 295 296 297 297 299 301 304 306 307 307 307 307 308 308
285 283 290 290 291 290 287 284 286 281 277 280 283 286 290 290 291 292 292 290 290 290 290 291 292 292 293 294 295 294 294 295 295 296 297 298 299 301 301 304 305 305 306 306
288 284 287 289 291 291 288 289 283 284 278 277 281 281 286 287 289 291 290 290 290 290 290 291 291 291 292 294 295 296 295 294 294 295 295 296 297 297 298 299 299 300 301 302
290 287 284 288 287 287 286 285 285 284 283 278 278 284 290 291 292 292 292 292 290 290 290 290 291 291 292 294 294 295 296 295 294 294 294 294 294 295 296 295 296 297 297 298
290 287 283 284 287 288 287 286 286 282 279 281 280 282 289 292 292 294 294 292 291 290 291 290 290 291 291 292 293 294 295 295 296 295 294 294 294 294 294 294 294 295 295 295
289 285 281 281 283 286 285 287 287 285 284 279 280 285 288 289 290 292 293 292 290 290 290 290 290 291 291 291 292 293 294 294 295 295 295 294 293 293 293 293 293 293 293 293
291 285 284 284 283 284 282 285 287 286 282 282 282 285 286 289 290 291 291 291 290 290 290 290 290 290 290 290 291 292 293 294 295 295 294 294 293 293 293 293 293 293 293 293
288 284 282 283 283 284 284 284 285 284 286 282 287 284 290 291 291 293 293 290 289 289 289 289 289 290 290 290 290 291 292 292 294 294 293 293 293 294 293 293 292 292 292 292
287 284 281 280 280 281 279 283 285 285 286 286 286 286 293 293 294 293 290 288 287 289 289 289 289 289 289 290 290 290 291 291 292 292 291 292 292 292 292 291 291 291 291 291
285 281 280 281 276 276 278 279 282 285 286 287 283 289 291 290 289 291 291 290 288 289 290 289 289 289 289 290 290 290 290 290 290 290 290 290 291 290 290 290 290 289 288 289
283 282 280 280 276 276 286 283 284 285 288 288 288 290 291 292 293 293 294 292 290 290 290 290 290 290 290 291 291 290 290 290 290 290 289 289 290 289 289 289 288 288 288 287
285 281 277 278 277 281 286 279 281 282 285 287 288 289 292 290 290 291 293 294 294 292 292 292 292 292 291 290 291 290 289 290 290 289 288 288 289 288 288 287 287 287 287 287
282 282 283 272 277 277 285 281 283 285 283 290 289 289 290 289 284 291 294 293 293 293 293 292 292 291 290 290 290 289 289 289 289 289 288 288 288 288 287 286 286 286 287 285
277 278 278 277 278 281 286 282 283 283 289 285 287 289 288 287 291 291 291 292 293 292 292 292 291 290 290 290 289 289 288 288 289 288 286 285 286 286 287 286 286 286 285 285
280 278 277 275 277 276 282 280 282 289 285 286 286 287 288 291 290 290 289 291 290 290 290 291 290 289 290 289 288 288 287 288 287 286 284 283 283 284 285 284 284 284 285 284
280 284 279 281 282 287 285 287 286 286 286 285 287 287 289 289 289 290 289 289 289 290 289 289 290 288 288 287 288 287 287 286 284 282 279 280 280 282 283 284 283 284 285 285
281 284 281 281 286 285 285 287 286 286 286 287 288 288 288 288 289 288 288 287 287 287 288 288 288 287 286 286 285 287 286 284 281 280 279 279 280 281 282 284 285 285 284 284
283 283 282 281 284 285 286 287 288 287 285 285 287 288 288 288 287 288 287 287 287 286 286 287 287 286 287 286 285 285 284 281 281 280 279 280 282 282 282 283 283 283 284 286
282 282 282 284 287 288 289 290 290 288 286 287 287 285 286 288 288 287 288 288 286 285 285 285 286 286 287 285 285 284 282 282 281 280 279 281 281 281 282 282 282 283 284 284
Wind_Speed
2 4 4 5 1 2 4 2 1 2 0 6 4 9 7 4 4 5 6 8 10 12 13 13 12 13 16 17 15 17 17 15 12 9 7 8 10 10 8 7 12 13 13 12
4 4 5 8 5 3 2 1 2 4 3 4 7 13 8 7 4 5 7 9 10 11 13 14 15 16 14 14 14 14 16 16 13 9 7 7 8 7 8 7 10 12 12 13
3 5 8 4 5 4 3 2 2 3 6 2 10 6 5 5 8 8 9 8 7 10 13 14 14 14 13 15 16 14 14 15 13 13 7 7 8 9 8 8 9 10 13 12
2 4 5 4 3 5 3 4 3 1 6 4 5 5 4 6 8 8 8 7 8 10 10 12 13 16 14 16 17 18 16 16 15 14 7 10 7 8 7 8 7 7 12 12
3 8 6 4 1 4 3 3 1 1 2 5 2 2 1 3 6 8 6 5 6 8 9 12 13 15 14 15 15 18 17 18 20 17 8 5 7 5 4 6 6 3 8 9
3 1 2 1 3 1 6 3 2 1 2 3 3 3 4 6 5 3 4 4 5 7 8 10 11 13 14 15 16 17 19 20 22 18 15 4 6 9 8 8 8 5 6 6
2 3 1 1 3 2 3 3 1 2 3 2 3 4 8 5 7 5 4 4 4 5 6 9 13 14 15 15 17 15 20 20 21 20 18 13 12 13 11 10 8 10 9 9
6 5 7 5 2 2 5 3 2 4 3 2 2 7 2 2 3 5 4 5 4 4 5 7 10 11 13 14 14 16 16 18 19 19 17 16 14 10 10 11 11 10 10 11
6 3 2 1 1 2 4 4 2 3 1 4 3 6 9 5 7 8 8 7 6 3 3 5 7 9 11 12 13 12 13 14 18 19 17 18 15 17 13 15 15 12 13 13
5 4 1 3 2 3 4 5 3 1 3 5 4 6 6 8 14 12 11 10 7 3 1 4 6 7 9 9 10 12 11 11 12 14 15 13 16 17 15 15 15 15 13 13
5 1 3 2 9 8 5 4 2 3 3 3 4 5 4 9 11 15 14 10 7 5 3 2 4 5 6 8 10 10 12 12 12 12 12 13 13 14 13 13 13 13 13 12
5 3 5 4 1 1 1 4 8 4 5 2 2 8 5 6 5 10 12 11 9 5 5 2 1 3 5 7 8 9 10 11 11 11 11 12 12 12 13 13 13 12 12 12
8 3 3 2 3 3 6 8 5 4 1 8 4 4 3 4 6 9 12 12 11 8 6 5 3 1 4 5 6 6 7 8 8 10 12 13 13 13 13 12 11 12 12 11
4 3 4 3 3 4 6 11 15 11 5 4 12 4 6 10 11 11 12 12 13 11 10 7 5 4 2 4 4 5 6 6 7 9 11 12 11 10 9 10 12 11 11 11
3 5 3 4 3 3 4 7 16 20 16 12 3 12 11 14 16 16 15 13 13 13 12 10 9 7 6 5 4 5 5 6 6 8 9 10 10 10 10 11 11 11 11 10
3 2 1 4 2 5 7 15 15 21 21 24 22 33 19 18 12 12 15 16 16 15 14 13 11 10 9 8 7 5 6 6 6 9 9 8 9 10 10 10 9 10 9 8
8 6 4 4 3 3 9 16 25 18 15 23 20 21 5 4 15 16 16 18 19 18 17 15 15 13 11 10 9 7 7 7 7 9 7 7 8 8 8 8 8 7 8 8
6 5 1 1 2 9 5 2 6 22 20 24 18 17 11 11 9 12 15 18 18 18 17 16 14 13 12 11 10 8 7 7 8 8 8 7 6 7 7 7 8 7 6 7
5 6 4 5 6 10 15 7 10 11 11 27 28 27 15 5 1 12 15 17 18 19 17 15 14 14 13 12 11 10 8 7 6 7 8 8 8 7 7 7 6 6 7 7
6 1 5 4 6 9 3 3 3 4 14 14 23 20 15 11 8 9 16 18 16 15 15 15 15 13 13 13 12 12 10 9 8 7 6 6 6 7 8 6 6 3 5 7
8 5 13 7 8 10 9 7 6 5 5 4 10 12 17 14 8 2 2 13 14 15 16 16 16 15 15 13 12 12 11 10 8 7 6 5 5 6 8 7 4 5 6 6
16 14 8 5 8 18 10 7 12 3 2 3 6 10 16 12 7 3 3 10 13 15 14 16 15 14 13 13 12 11 12 9 9 8 7 5 3 3 4 6 5 5 8 7
10 9 10 16 12 1 17 3 10 1 3 4 4 7 11 10 12 10 6 8 12 15 12 13 14 14 12 12 12 12 10 11 10 8 6 4 4 4 4 6 7 6 5 5
7 4 6 4 12 18 13 16 6 7 4 2 3 6 10 9 10 9 6 7 9 10 11 11 12 13 13 12 11 10 10 10 11 10 8 6 5 5 4 3 3 4 5 5
7 16 10 8 10 5 13 18 15 13 6 4 4 6 11 9 6 9 8 8 9 10 10 12 14 13 15 13 11 7 10 11 10 8 7 7 6 6 5 2 2 2 2 3
9 9 13 12 10 5 5 11 16 14 18 18 12 7 6 10 9 8 7 8 9 11 10 11 12 12 12 12 12 10 10 12 11 9 7 7 7 6 6 6 5 3 5 6
Wind_Direction
49 215 171 125 84 71 110 143 255 259 345 307 253 273 299 223 271 340 343 336 341 351 0 3 345 339 345 343 332 325 324 320 312 293 284 271 252 228 219 198 191 189 191 187
178 197 138 127 127 119 133 160 255 276 242 291 288 283 275 216 264 282 306 311 325 327 332 341 348 347 345 332 332 327 322 316 313 297 265 263 268 265 204 180 192 197 193 185
234 108 147 155 156 180 182 202 200 294 325 245 304 259 205 219 250 267 271 288 312 332 340 342 340 346 342 337 336 339 329 326 322 307 278 253 253 249 205 185 190 190 183 182
109 134 169 167 196 206 239 187 176 312 329 301 347 294 232 226 256 259 275 300 325 338 348 348 344 347 348 340 342 349 345 336 335 327 295 248 247 214 194 191 193 178 188 186
111 165 171 197 222 189 77 152 167 351 285 302 158 254 169 213 255 238 242 283 319 334 343 343 344 348 353 347 342 344 352 352 351 345 319 215 239 222 88 81 94 153 182 171
91 25 228 63 100 67 132 141 96 92 268 248 114 312 236 198 201 191 216 265 307 335 345 349 349 349 352 359 353 346 353 4 359 357 6 146 99 90 90 85 83 77 81 84
160 186 150 191 150 137 198 212 301 250 217 288 147 246 269 223 213 207 218 256 299 323 353 354 358 357 357 360 359 351 355 6 2 8 16 40 59 75 82 82 86 80 77 81
192 209 185 166 251 240 191 249 241 273 276 341 139 236 254 241 221 216 235 260 277 301 5 8 1 359 360 -0 5 2 357 2 7 14 20 33 39 68 65 75 79 76 79 79
170 156 107 54 131 282 153 205 45 108 80 274 212 245 241 199 210 220 226 244 250 273 8 14 9 9 5 4 10 14 2 10 10 11 16 30 35 52 56 63 71 69 69 70
176 132 225 131 148 77 273 138 137 206 241 256 224 266 247 207 216 213 223 230 232 234 291 34 19 15 10 11 11 20 29 23 21 20 19 24 31 35 40 49 55 57 58 58
156 219 137 179 206 183 161 207 190 302 249 261 293 241 197 195 196 198 207 217 217 201 210 38 28 22 13 24 21 23 25 32 36 40 28 28 33 40 45 46 49 58 57 61
177 127 180 184 96 320 261 236 192 225 191 249 327 270 169 203 201 200 192 197 203 197 184 179 71 30 38 32 30 30 31 32 41 48 50 44 40 44 47 44 45 52 61 56
180 206 144 186 181 183 221 197 204 116 117 207 188 248 162 213 214 202 194 188 190 189 186 190 202 126 77 53 46 51 50 46 45 64 61 59 53 45 48 49 48 49 57 62
151 187 233 216 92 120 200 198 199 197 194 193 233 260 214 218 211 195 199 191 192 185 191 190 191 197 148 91 73 69 79 63 71 79 82 80 76 78 76 70 64 59 58 64
222 235 216 247 201 194 225 207 198 210 213 217 239 237 240 215 209 202 197 185 191 191 195 194 190 189 186 154 137 119 92 89 87 84 82 83 83 76 71 68 68 71 68 67
191 242 170 277 241 231 256 236 226 226 233 248 260 279 262 240 225 195 192 185 195 200 198 196 192 185 188 179 159 148 121 103 105 95 88 82 78 78 73 70 70 74 71 74
165 157 172 251 341 303 269 219 210 215 217 223 233 239 212 186 212 214 198 194 196 198 197 192 193 192 183 184 168 166 142 136 118 110 102 99 99 90 86 94 92 86 88 87
166 161 207 195 258 244 250 133 190 219 237 217 239 243 218 224 212 230 211 198 199 193 193 193 189 190 185 177 171 152 161 150 140 129 123 115 111 111 109 101 99 92 82 77
208 158 172 208 216 311 290 185 182 186 260 214 222 241 229 192 115 245 215 211 203 190 187 188 183 183 177 176 169 162 170 163 159 150 144 142 141 129 114 106 110 104 108 100
169 312 231 155 224 235 261 153 175 167 277 205 205 225 199 165 225 243 193 195 199 190 179 170 171 171 175 181 173 162 173 176 176 168 157 148 138 132 130 134 121 114 111 113
163 188 216 202 237 274 241 155 141 173 254 156 185 196 168 192 207 47 191 186 186 181 173 164 165 176 180 170 176 172 168 190 175 154 153 157 156 144 142 136 136 141 121 120
171 173 185 178 222 254 149 104 198 200 342 155 165 172 189 200 181 181 177 180 178 177 170 165 165 172 174 170 174 176 180 161 155 159 159 153 149 145 149 146 146 144 152 152
206 195 178 193 209 252 193 204 207 207 189 202 178 185 189 192 206 197 199 179 188 181 173 172 170 167 173 174 184 183 178 155 153 147 151 163 157 167 167 159 151 150 154 144
230 191 224 133 216 232 217 238 223 195 241 221 210 173 179 198 201 201 197 176 175 176 175 173 164 173 174 181 190 192 158 154 153 160 161 163 170 170 166 153 167 156 160 158
179 160 185 260 270 275 249 224 229 212 221 232 222 188 196 198 207 198 192 186 174 178 175 177 177 180 188 177 186 175 160 155 164 155 162 168 171 174 161 152 166 180 192 180
179 169 196 226 212 190 240 210 205 204 209 210 200 201 215 195 203 192 201 189 172 175 173 182 188 181 186 175 179 176 172 170 160 163 170 175 173 178 172 160 147 172 173 167